F4MNZ-13 Weather Reports


time (UTC)temp
F
wind
direction
speed
knots
gust
knots
rain 1hr
in
rain 24hr
in
rain mn
in
humidity
%
barometer
mb
20260507142000 60 116 0.0 2.6 0.01 0.44 0.01 71 1016.9
20260507140500 60 104 0.0 3.5 0.01 0.44 0.01 69 1016.9
20260507140000 60 117 1.7 4.3 0.01 0.44 0.01 65 1016.9
20260507135503 60 30 2.6 5.2 0.01 0.44 0.01 65 1017.0
20260507135001 61 34 3.5 5.2 0.00 0.43 0.00 61 1016.9
20260507134458 61 355 0.9 4.3 0.00 0.43 0.00 61 1016.9
20260507133500 61 355 3.5 5.2 0.00 0.43 0.00 61 1017.0
20260507133000 61 16 2.6 5.2 0.00 0.43 0.00 59 1017.1
20260507132458 61 313 2.6 7.0 0.00 0.43 0.00 62 1017.1
20260507132002 61 355 7.0 7.0 0.00 0.43 0.00 61 1017.1
20260507131458 61 53 4.3 7.0 0.00 0.43 0.00 61 1017.2
20260507131000 61 323 1.7 8.7 0.00 0.43 0.00 65 1017.2
20260507130459 61 24 1.7 8.7 0.00 0.43 0.00 64 1017.3
20260507125459 61 34 3.5 5.2 0.00 0.43 0.00 60 1017.3
20260507124959 62 313 0.9 7.0 0.00 0.43 0.00 59 1017.2
20260507124502 62 269 0.9 7.0 0.00 0.43 0.00 59 1017.2
20260507124000 63 32 7.0 7.0 0.00 0.43 0.00 59 1017.3
20260507123501 63 35 4.3 7.0 0.00 0.43 0.00 61 1017.4
20260507123000 63 350 0.0 8.7 0.00 0.43 0.00 60 1017.3
20260507122505 63 49 6.1 7.0 0.00 0.43 0.00 63 1017.4
20260507121501 63 117 0.9 5.2 0.00 0.43 0.00 69 1017.5
20260507121001 62 32 3.5 7.0 0.00 0.43 0.00 63 1017.5
20260507120500 62 338 2.6 7.8 0.00 0.43 0.00 63 1017.7
20260507120003 62 360 2.6 9.6 0.00 0.43 0.00 60 1017.7
20260507115001 63 53 7.8 7.8 0.00 0.43 0.00 67 1017.9
20260507114002 61 221 0.9 6.1 0.00 0.43 0.00 63 1018.0
20260507113000 60 75 0.9 8.7 0.00 0.43 0.00 60 1018.1
20260507112500 61 51 6.1 8.7 0.00 0.43 0.00 62 1018.1
20260507111959 61 33 1.7 3.5 0.00 0.43 0.00 61 1018.1
20260507111503 61 259 1.7 6.1 0.00 0.43 0.00 58 1018.2
20260507110958 60 229 1.7 6.1 0.00 0.43 0.00 60 1018.2
20260507110459 60 303 2.6 4.3 0.00 0.43 0.00 59 1018.3
20260507110000 60 126 2.6 5.2 0.00 0.43 0.00 59 1018.3
20260507105459 60 223 2.6 3.5 0.00 0.43 0.00 61 1018.4
20260507105003 60 219 1.7 3.5 0.00 0.43 0.00 61 1018.4
20260507104459 60 186 0.0 4.3 0.00 0.43 0.00 54 1018.4
20260507104001 60 294 1.7 4.3 0.00 0.43 0.00 60 1018.4
20260507103000 59 355 0.9 5.2 0.00 0.43 0.00 69 1018.5
20260507102458 59 290 0.9 5.2 0.00 0.43 0.00 69 1018.5
20260507101500 59 24 4.3 7.8 0.00 0.43 0.00 67 1018.7
20260507100959 59 53 0.9 5.2 0.00 0.43 0.00 68 1018.6
20260507100500 58 86 3.5 5.2 0.00 0.43 0.00 70 1018.6
20260507095502 0 0.0 0.0 0.00 0.43 0.00 1018.6
20260507094959 0 0.0 0.0 0.00 0.43 0.00 1018.8
20260507094503 0 0.0 0.0 0.00 0.43 0.00 1018.7
20260507094001 0 0.0 0.0 0.00 0.43 0.00 1018.8
20260507093501 0 0.0 0.0 0.00 0.43 0.00 1018.6
20260507093000 0 0.0 0.0 0.00 0.43 0.00 1018.7
20260507092500 0 0.0 0.0 0.00 0.43 0.00 1018.6
20260507092000 0 0.0 0.0 0.00 0.43 0.00 1018.7
20260507091500 0 0.0 0.0 0.00 0.43 0.00 1018.7
20260507091003 0 0.0 0.0 0.00 0.43 0.00 1018.7
20260507085459 53 65 0.0 2.6 0.00 0.43 0.00 78 1018.7
20260507085002 53 355 1.7 2.6 0.00 0.43 0.00 79 1018.8
20260507083959 53 28 1.7 3.5 0.00 0.43 0.00 80 1018.8
20260507083000 52 65 0.9 2.6 0.00 0.43 0.00 82 1018.9
20260507082459 52 11 0.9 3.5 0.00 0.43 0.00 82 1018.8
20260507082004 51 46 1.7 3.5 0.00 0.43 0.00 83 1018.8
20260507081505 51 18 1.7 3.5 0.00 0.43 0.00 84 1018.8
20260507081003 51 41 0.9 2.6 0.00 0.43 0.00 82 1018.8
20260507080500 50 39 0.9 2.6 0.00 0.43 0.00 84 1018.9
20260507080002 50 45 1.7 3.5 0.00 0.43 0.00 85 1018.8
20260507075505 50 59 1.7 3.5 0.00 0.43 0.00 86 1018.8
20260507073959 49 28 1.7 4.3 0.00 0.43 0.00 86 1019.0
20260507073000 48 20 2.6 3.5 0.00 0.43 0.00 89 1019.0
20260507072501 48 53 0.9 3.5 0.00 0.43 0.00 88 1019.0
20260507072003 48 41 2.6 3.5 0.00 0.43 0.00 92 1019.0
20260507070958 46 202 0.0 1.7 0.00 0.43 0.00 92 1019.0
20260507065459 45 180 0.9 1.7 0.00 0.43 0.00 95 1019.0
20260507065006 45 71 0.9 1.7 0.00 0.43 0.00 95 1019.0
20260507064002 44 72 0.9 1.7 0.00 0.43 0.00 95 1018.9
20260507063458 43 218 0.9 1.7 0.00 0.43 0.00 95 1018.9
20260507062959 43 234 0.0 0.9 0.00 0.43 0.00 94 1018.9
20260507061959 43 233 0.9 1.7 0.00 0.43 0.00 95 1019.0
20260507061458 43 207 0.0 1.7 0.00 0.43 0.00 95 1018.9
20260507060958 43 207 0.0 0.9 0.00 0.43 0.00 95 1018.8
20260507060459 42 207 0.0 0.9 0.00 0.43 0.00 95 1018.9
20260507055957 42 207 0.0 2.6 0.00 0.43 0.00 95 1018.9
20260507055458 42 205 0.9 4.3 0.00 0.43 0.00 95 1018.9
20260507054958 42 200 3.5 4.3 0.00 0.43 0.00 95 1018.9
20260507054502 42 232 0.9 1.7 0.00 0.43 0.00 95 1018.8
20260507053959 42 232 1.7 1.7 0.00 0.43 0.00 95 1018.8
20260507053500 43 221 0.9 1.7 0.00 0.43 0.00 95 1018.8
20260507052958 43 221 0.0 1.7 0.00 0.43 0.00 95 1018.7
20260507052458 43 221 0.0 1.7 0.00 0.43 0.00 95 1018.7
20260507051958 43 221 0.0 1.7 0.00 0.43 0.00 95 1018.7
20260507051457 43 221 0.0 0.0 0.00 0.43 0.00 95 1018.6
20260507050457 43 221 0.0 1.7 0.00 0.43 0.00 95 1018.7
20260507045959 43 221 0.0 1.7 0.00 0.43 0.00 95 1018.6
20260507045458 43 221 0.9 1.7 0.00 0.43 0.00 95 1018.4
20260507044501 43 221 0.0 0.9 0.00 0.43 0.00 94 1018.5
20260507043958 43 221 0.0 0.0 0.00 0.43 0.00 95 1018.6
20260507043457 43 221 0.0 0.9 0.00 0.43 0.00 95 1018.5
20260507042958 43 221 0.0 0.9 0.00 0.43 0.00 95 1018.5
20260507042458 43 221 0.0 0.9 0.00 0.43 0.00 95 1018.5
20260507042002 43 221 0.0 1.7 0.00 0.43 0.00 95 1018.4
20260507040958 43 224 0.0 0.9 0.00 0.43 0.00 95 1018.6
20260507040457 43 224 0.9 0.9 0.00 0.43 0.00 95 1018.4
20260507040001 43 224 0.0 2.6 0.00 0.43 0.00 95 1018.4
20260507034500 43 215 0.9 3.5 0.00 0.43 0.00 95 1018.5
20260507034000 43 219 1.7 3.5 0.00 0.43 0.00 94 1018.5
20260507033502 43 202 1.7 1.7 0.00 0.43 0.00 94 1018.5
20260507032958 43 200 0.0 1.7 0.00 0.43 0.00 94 1018.6
20260507032501 43 200 0.0 1.7 0.00 0.43 0.00 94 1018.6
20260507032001 44 200 0.9 1.7 0.00 0.43 0.00 94 1018.7
20260507031000 44 200 0.9 0.9 0.00 0.43 0.00 94 1018.7
20260507030500 44 200 0.0 1.7 0.00 0.43 0.00 94 1018.7
20260507030000 45 200 0.9 1.7 0.00 0.43 0.00 94 1018.7
20260507025504 45 200 0.0 1.7 0.00 0.43 0.00 94 1018.7
20260507024459 45 200 0.0 0.9 0.00 0.43 0.00 94 1018.7
20260507023959 45 200 0.9 0.9 0.00 0.43 0.00 94 1018.7
20260507023503 46 200 0.0 0.9 0.00 0.43 0.00 95 1018.7
20260507022959 46 200 0.9 1.7 0.00 0.43 0.00 95 1018.8
20260507022501 46 200 0.9 1.7 0.00 0.43 0.00 95 1018.8
20260507022000 46 200 0.0 0.0 0.00 0.43 0.00 95 1018.8
20260507021458 46 200 0.0 0.0 0.00 0.43 0.00 95 1018.8
20260507020958 46 200 0.0 1.7 0.00 0.43 0.00 95 1018.9
20260507020458 46 200 0.0 1.7 0.00 0.43 0.00 95 1018.8
20260507015958 46 200 0.0 1.7 0.00 0.43 0.00 95 1018.8
20260507015458 46 200 0.0 0.0 0.00 0.43 0.00 95 1018.9
20260507014957 46 200 0.0 0.0 0.00 0.43 0.00 95 1018.9
20260507014457 46 200 0.0 0.9 0.00 0.43 0.00 94 1019.0
20260507013958 46 200 0.0 0.9 0.00 0.43 0.00 94 1019.0
20260507013457 46 200 0.0 0.0 0.00 0.43 0.00 94 1019.0
20260507012957 46 200 0.0 0.0 0.00 0.43 0.00 94 1019.1
20260507012457 46 200 0.0 0.0 0.00 0.43 0.00 94 1019.1
20260507011958 46 200 0.0 0.9 0.00 0.43 0.00 94 1019.1
20260507011457 46 200 0.0 0.9 0.00 0.43 0.00 94 1019.1
20260507010458 46 200 0.0 0.0 0.00 0.43 0.00 94 1019.1
20260507005959 46 200 0.0 0.0 0.00 0.43 0.00 94 1019.1
20260507005457 46 200 0.0 0.0 0.00 0.43 0.00 94 1019.2
20260507004958 46 200 0.0 0.0 0.00 0.43 0.00 94 1019.3
20260507004457 46 200 0.0 0.0 0.00 0.43 0.00 94 1019.3
20260507003957 46 200 0.0 0.0 0.00 0.43 0.00 94 1019.4
20260507003459 46 200 0.0 0.0 0.00 0.43 0.00 94 1019.4
20260507002958 46 200 0.0 1.7 0.00 0.43 0.00 94 1019.4
20260507002458 46 200 0.0 1.7 0.00 0.43 0.00 94 1019.4
20260507001958 46 200 0.0 1.7 0.00 0.43 0.00 94 1019.5
20260507001459 46 200 0.0 1.7 0.00 0.43 0.00 94 1019.7
20260507000958 46 200 0.0 1.7 0.00 0.43 0.00 93 1019.6
20260507000458 46 200 0.0 1.7 0.00 0.43 0.00 93 1019.7
20260506235959 46 200 0.0 0.0 0.00 0.43 0.00 93 1019.7
20260506235458 46 200 0.0 1.7 0.00 0.43 0.00 93 1019.7
20260506234001 47 209 0.9 1.7 0.00 0.43 0.00 92 1019.6
20260506233502 47 233 0.9 1.7 0.00 0.43 0.00 92 1019.6
20260506232959 47 233 0.0 1.7 0.00 0.43 0.00 92 1019.7
20260506232458 47 233 0.9 1.7 0.00 0.43 0.00 93 1019.7
20260506231958 47 233 0.0 1.7 0.00 0.43 0.00 93 1019.7
20260506230958 47 212 0.0 1.7 0.00 0.43 0.00 93 1019.8
20260506230459 47 204 0.0 2.6 0.00 0.43 0.00 92 1019.8
20260506230001 47 211 1.7 2.6 0.00 0.43 0.00 93 1019.8
20260506225500 47 192 0.0 2.6 0.00 0.43 0.00 93 1019.8
20260506225001 47 220 0.9 1.7 0.00 0.43 0.00 93 1019.8
20260506224502 47 221 0.9 1.7 0.00 0.43 0.00 92 1019.8
20260506224004 47 226 0.9 2.6 0.00 0.43 0.00 92 1019.7
20260506223501 47 258 0.0 5.2 0.00 0.43 0.00 92 1019.8
20260506223001 47 242 0.9 5.2 0.00 0.43 0.00 93 1019.8
20260506222501 47 235 1.7 3.5 0.00 0.43 0.00 94 1019.8
20260506222001 46 229 1.7 3.5 0.00 0.43 0.00 95 1019.8
20260506221502 46 206 1.7 1.7 0.00 0.43 0.00 95 1019.8
20260506221001 46 213 0.0 0.9 0.00 0.43 0.00 95 1019.9
20260506220500 46 213 0.0 0.9 0.00 0.43 0.00 95 1019.8
20260506220000 46 213 0.9 0.9 0.00 0.43 0.43 95 1019.8
20260506215500 46 213 0.9 2.6 0.00 0.43 0.43 95 1019.8
20260506214959 46 213 1.7 2.6 0.00 0.43 0.43 94 1019.8
20260506213959 46 208 0.0 1.7 0.00 0.43 0.43 94 1019.8
20260506213459 46 207 0.0 2.6 0.00 0.43 0.43 94 1019.8
20260506213000 46 213 0.9 2.6 0.00 0.43 0.43 94 1019.8
20260506212500 46 213 1.7 1.7 0.00 0.43 0.43 94 1019.9
20260506212000 46 211 0.9 1.7 0.00 0.43 0.43 94 1019.9
20260506211500 47 211 0.0 1.7 0.00 0.43 0.43 94 1019.9
20260506210500 47 211 0.0 1.7 0.00 0.43 0.43 94 1019.8
20260506205959 47 211 0.0 1.7 0.00 0.43 0.43 94 1019.9
20260506203959 47 214 0.9 0.9 0.00 0.43 0.43 94 1019.8
20260506203501 47 214 0.0 1.7 0.00 0.43 0.43 94 1019.7
20260506203001 47 214 0.0 1.7 0.00 0.43 0.43 94 1019.7
20260506202500 47 214 0.0 1.7 0.00 0.43 0.43 94 1019.6
20260506202002 47 214 0.0 0.9 0.00 0.43 0.43 94 1019.6
20260506201501 47 214 0.0 1.7 0.00 0.43 0.43 94 1019.6
20260506200959 47 214 0.0 1.7 0.01 0.43 0.43 94 1019.5
20260506200459 47 214 0.0 1.7 0.01 0.43 0.43 94 1019.4
20260506200001 47 214 0.0 2.6 0.01 0.43 0.43 94 1019.4
20260506195501 47 227 1.7 2.6 0.01 0.43 0.43 94 1019.3
20260506194501 48 217 0.9 1.7 0.01 0.43 0.43 93 1019.1
20260506193502 48 220 0.0 1.7 0.01 0.43 0.43 93 1018.9
20260506193000 48 220 0.0 1.7 0.01 0.43 0.43 93 1018.8
20260506192501 48 220 0.0 0.0 0.01 0.43 0.43 93 1018.8
20260506192001 48 220 0.0 0.0 0.01 0.43 0.43 93 1018.8
20260506191501 48 220 0.0 0.9 0.01 0.43 0.43 93 1018.8
20260506190503 48 220 0.9 1.7 0.00 0.43 0.43 93 1018.7
20260506190002 48 209 0.9 2.6 0.00 0.43 0.43 92 1018.7
20260506185459 48 219 2.6 3.5 0.00 0.43 0.43 92 1018.6
20260506184959 48 205 0.9 3.5 0.00 0.43 0.43 92 1018.6
20260506184459 48 195 2.6 3.5 0.00 0.43 0.43 92 1018.6
20260506184000 48 217 1.7 4.3 0.01 0.43 0.43 92 1018.6
20260506183501 48 202 1.7 6.1 0.01 0.43 0.43 92 1018.6
20260506182959 48 175 2.6 5.2 0.02 0.43 0.43 92 1018.4
20260506182459 48 203 1.7 4.3 0.02 0.43 0.43 92 1018.4
20260506182000 48 169 4.3 4.3 0.03 0.43 0.43 92 1018.4
20260506181459 48 194 1.7 4.3 0.05 0.43 0.43 92 1018.3
20260506180959 48 192 1.7 4.3 0.06 0.43 0.43 91 1018.2
20260506180500 49 211 1.7 2.6 0.07 0.43 0.43 92 1018.1
20260506175959 49 192 1.7 3.5 0.09 0.43 0.43 91 1018.1
20260506175459 49 207 0.9 3.5 0.09 0.43 0.43 91 1018.0
20260506174959 49 182 0.9 2.6 0.11 0.43 0.43 92 1018.0
20260506174000 49 244 0.9 4.3 0.14 0.42 0.42 91 1018.0
20260506173459 49 169 0.9 4.3 0.17 0.42 0.42 91 1017.9
20260506171959 49 229 0.9 3.5 0.20 0.39 0.39 91 1017.8
20260506171500 49 186 2.6 3.5 0.20 0.38 0.38 91 1017.8
20260506170959 49 175 0.9 2.6 0.19 0.36 0.36 90 1017.7
20260506165959 49 194 0.9 4.3 0.18 0.34 0.34 90 1017.8
20260506165458 49 184 0.9 4.3 0.18 0.33 0.33 90 1017.7
20260506165001 49 195 2.6 4.3 0.17 0.31 0.31 90 1017.7
20260506164002 49 136 3.5 6.1 0.17 0.28 0.28 90 1017.7
20260506163500 49 176 1.7 6.1 0.17 0.24 0.24 89 1017.7
20260506163006 50 242 0.9 1.7 0.15 0.22 0.22 89 1017.6
20260506162500 50 190 0.9 2.6 0.14 0.20 0.20 89 1017.5
20260506161500 50 202 0.9 4.3 0.13 0.18 0.18 88 1017.5
20260506160959 50 213 0.9 4.3 0.13 0.17 0.17 89 1017.4
20260506155500 51 250 0.9 1.7 0.11 0.17 0.15 86 1017.4
20260506155000 51 169 0.0 4.3 0.12 0.17 0.15 88 1017.3
20260506154001 51 202 1.7 4.3 0.07 0.13 0.10 86 1017.2
20260506153459 51 231 2.6 2.6 0.06 0.10 0.08 88 1017.1
20260506152959 51 261 1.7 2.6 0.05 0.09 0.07 88 1017.1
20260506152500 51 271 0.9 3.5 0.04 0.08 0.06 88 1017.2
20260506152001 51 163 1.7 3.5 0.05 0.08 0.06 87 1017.0
20260506150959 51 167 0.9 1.7 0.04 0.06 0.04 86 1017.0
20260506150500 51 183 0.9 1.7 0.04 0.06 0.04 86 1016.9
20260506144501 52 234 0.9 2.6 0.03 0.13 0.03 84 1017.0
20260506144000 52 217 0.9 6.1 0.03 0.13 0.03 80 1016.9
20260506143000 52 250 7.0 7.8 0.02 0.13 0.02 81 1016.8
20260506142500 53 260 2.6 7.0 0.02 0.12 0.02 79 1016.7